Vorticity
6 8 7 8 6 8 3 4 8 -1 12 4 6 -2 14 20 15 10 8 1 5 10 5 6 8 11 9 11 8 8 7 6 12 8 11 11 12 12 11 9 6 8 7 6
-0 0 2 5 3 11 13 9 -2 5 16 4 14 0 -7 15 15 8 16 12 15 16 15 13 16 11 15 15 10 8 13 6 8 11 8 9 12 11 8 9 9 9 10 9
8 9 7 4 3 5 11 11 9 8 5 9 -3 2 3 4 -6 6 15 10 4 6 9 8 6 5 9 12 12 15 11 11 7 13 8 12 15 10 9 6 8 9 8 10
7 7 7 8 6 6 9 10 3 10 10 10 12 18 7 10 6 6 -0 8 9 15 13 17 12 11 10 12 13 12 9 8 13 13 8 9 8 8 9 6 10 8 8 7
8 10 9 7 9 5 4 7 4 6 9 8 7 9 8 11 5 1 12 8 11 19 18 19 17 14 12 14 14 15 10 11 13 10 8 8 7 8 10 12 10 10 11 8
8 9 9 8 8 6 2 2 6 4 6 7 10 12 11 4 10 8 2 13 7 16 7 10 12 19 17 16 20 18 19 17 13 10 14 7 5 17 11 8 9 12 10 9
9 9 11 10 10 8 6 8 11 9 9 9 5 19 -6 7 -2 11 10 -6 -3 2 -7 1 7 9 18 20 21 21 20 18 15 15 11 6 12 13 12 10 12 9 7 7
9 9 10 10 10 12 13 13 9 10 9 12 8 11 9 13 7 -8 -5 14 5 18 8 15 17 15 13 19 19 21 23 21 14 9 13 8 12 13 14 11 8 8 7 10
14 14 14 14 15 13 13 10 8 8 11 11 14 12 10 18 2 3 19 19 6 5 16 4 9 11 13 12 18 24 19 14 9 13 11 9 9 14 13 11 8 10 11 11
13 11 10 12 12 13 12 13 11 9 11 10 16 19 12 17 15 7 2 5 3 12 8 7 9 11 11 12 17 15 12 9 11 11 10 13 15 13 8 10 6 8 9 10
14 14 13 11 13 13 12 12 13 11 15 15 19 6 15 5 5 15 7 2 6 18 4 15 11 14 16 13 12 14 13 11 15 11 7 3 8 8 6 8 9 8 10 11
11 12 10 11 11 9 9 13 15 14 15 15 15 14 21 4 -0 -7 -4 24 23 7 15 12 13 14 15 13 13 15 13 8 5 5 7 8 6 6 7 8 7 8 8 10
21 17 14 14 15 14 15 17 14 17 19 16 16 22 13 9 19 23 15 7 13 21 9 17 15 15 17 9 10 7 6 6 7 9 8 7 5 5 5 6 7 7 8 7
20 22 25 25 24 22 20 18 20 21 16 16 23 15 18 18 18 13 12 14 7 8 12 5 11 15 11 9 6 7 10 9 8 6 6 5 6 6 5 6 6 5 6 6
13 6 -4 2 4 30 20 22 21 17 10 -1 3 -1 -1 4 11 19 23 18 18 19 15 21 14 11 10 9 6 11 7 5 4 3 4 4 4 6 8 9 11 11 12 14
13 12 12 6 16 13 22 18 15 17 16 11 10 15 15 12 1 10 22 18 23 19 13 9 14 9 9 8 9 5 3 4 4 3 3 7 11 12 13 16 18 19 21 21
-2 -2 12 8 11 6 10 10 10 10 8 10 10 14 12 17 20 21 23 21 15 12 10 10 8 7 7 6 5 3 3 2 3 7 13 16 15 20 26 30 35 38 41 43
19 19 19 5 10 13 16 21 15 14 13 17 15 22 24 17 17 16 13 12 11 9 8 8 6 6 5 5 3 4 4 10 14 15 19 23 31 44 38 18 7 2 4 7
12 12 15 20 23 20 16 19 21 22 21 25 20 14 15 11 9 11 11 9 9 7 6 6 5 4 5 4 6 11 14 14 18 26 31 37 34 5 8 12 11 12 11 13
15 18 20 20 21 17 19 14 12 11 11 10 11 10 13 8 7 9 8 7 6 6 5 6 4 4 9 13 14 14 15 20 27 38 23 8 11 9 6 6 7 4 16 9
18 15 14 12 13 12 10 8 9 8 11 9 8 8 7 8 7 7 6 7 6 5 4 7 10 13 14 14 14 16 23 30 34 17 5 6 10 11 8 7 13 17 15 20
10 12 10 8 7 7 7 8 9 9 8 8 8 7 8 9 7 7 7 6 7 9 11 13 12 16 13 15 20 24 28 27 13 2 -2 13 10 13 7 13 17 25 17 8
7 6 7 7 7 9 9 8 10 9 7 6 7 6 6 11 10 8 5 9 10 10 10 15 15 17 20 18 25 25 24 13 3 5 12 13 10 10 15 15 12 6 10 12
6 6 7 6 7 8 7 8 6 6 9 11 12 10 5 5 8 9 7 13 11 16 18 17 20 21 15 22 31 23 13 5 6 7 8 11 17 14 11 13 11 15 16 7
8 9 6 9 8 10 11 11 11 10 7 6 7 8 9 9 9 10 14 18 17 19 15 19 26 14 21 26 21 19 8 3 4 4 7 19 8 14 10 18 10 14 13 -1
10 12 13 9 10 8 8 7 8 8 9 10 10 8 12 11 16 19 16 15 14 14 20 12 15 9 20 19 18 11 3 5 10 7 16 12 13 11 16 10 19 3 0 38
10 9 10 10 9 8 10 10 10 10 13 14 16 17 13 15 14 16 13 15 17 16 20 16 8 21 21 22 8 7 3 7 9 14 15 7 11 8 14 7 24 19 31 41
Height
5683 5685 5687 5689 5688 5690 5689 5688 5685 5686 5689 5689 5686 5688 5689 5687 5686 5684 5681 5681 5680 5679 5678 5676 5674 5674 5671 5669 5667 5665 5661 5660 5660 5659 5658 5657 5655 5655 5653 5650 5652 5650 5651 5655
5673 5672 5672 5674 5678 5677 5675 5673 5674 5671 5675 5672 5674 5674 5675 5672 5673 5670 5668 5668 5667 5666 5665 5662 5661 5660 5658 5655 5652 5650 5650 5646 5646 5646 5647 5645 5645 5644 5642 5641 5641 5643 5643 5646
5657 5659 5660 5661 5663 5662 5660 5659 5658 5656 5658 5661 5661 5660 5661 5660 5660 5658 5656 5654 5652 5651 5649 5647 5646 5646 5644 5641 5638 5635 5634 5634 5634 5633 5634 5635 5633 5632 5632 5631 5632 5633 5635 5634
5641 5642 5644 5646 5647 5646 5643 5644 5643 5644 5643 5649 5648 5646 5646 5646 5646 5645 5644 5642 5640 5637 5634 5632 5631 5630 5629 5627 5625 5621 5619 5621 5621 5620 5619 5620 5620 5621 5622 5622 5624 5622 5626 5625
5624 5626 5626 5628 5630 5630 5628 5630 5632 5633 5633 5634 5632 5631 5635 5633 5632 5632 5631 5630 5627 5624 5622 5621 5618 5616 5614 5612 5611 5607 5606 5606 5607 5608 5607 5608 5607 5611 5611 5612 5611 5611 5614 5616
5607 5608 5609 5610 5612 5614 5613 5617 5617 5616 5617 5618 5619 5618 5618 5618 5617 5619 5618 5616 5614 5612 5610 5608 5606 5603 5602 5601 5598 5595 5595 5593 5594 5596 5597 5596 5597 5603 5601 5602 5600 5601 5603 5605
5589 5589 5589 5590 5595 5594 5597 5602 5600 5600 5600 5603 5603 5604 5604 5604 5604 5604 5605 5603 5601 5600 5598 5596 5595 5593 5590 5588 5587 5585 5585 5584 5583 5586 5586 5587 5591 5590 5590 5590 5591 5592 5593 5593
5572 5571 5571 5572 5576 5580 5581 5583 5584 5584 5583 5587 5588 5590 5589 5590 5591 5590 5589 5589 5588 5587 5586 5583 5581 5579 5577 5577 5576 5575 5574 5574 5574 5575 5577 5579 5578 5578 5579 5580 5581 5582 5582 5583
5553 5552 5552 5554 5559 5562 5564 5565 5567 5568 5569 5571 5572 5572 5574 5575 5576 5577 5577 5577 5575 5575 5574 5572 5569 5566 5565 5565 5564 5564 5563 5563 5564 5564 5565 5566 5567 5568 5569 5570 5570 5572 5572 5571
5533 5534 5537 5539 5542 5545 5548 5548 5550 5552 5554 5554 5557 5557 5559 5561 5561 5564 5563 5563 5563 5563 5562 5560 5559 5557 5555 5554 5554 5554 5553 5552 5553 5553 5553 5556 5557 5558 5559 5560 5564 5561 5561 5560
5519 5520 5523 5523 5526 5530 5531 5532 5533 5537 5538 5540 5542 5543 5545 5548 5549 5549 5551 5551 5551 5549 5548 5548 5547 5545 5544 5544 5545 5545 5543 5543 5544 5543 5543 5544 5548 5548 5547 5548 5549 5548 5549 5549
5504 5507 5508 5508 5510 5514 5516 5517 5518 5521 5524 5526 5527 5529 5531 5534 5535 5536 5536 5538 5538 5537 5536 5536 5535 5534 5534 5534 5535 5534 5534 5534 5534 5535 5534 5534 5535 5535 5534 5535 5535 5536 5536 5538
5490 5492 5495 5495 5496 5501 5504 5503 5503 5507 5510 5512 5513 5516 5518 5520 5522 5522 5524 5524 5524 5523 5523 5523 5523 5523 5523 5523 5524 5523 5523 5523 5523 5522 5524 5523 5523 5523 5522 5521 5523 5524 5524 5524
5477 5480 5482 5484 5486 5488 5489 5491 5492 5494 5497 5499 5503 5503 5505 5507 5508 5509 5510 5510 5510 5511 5510 5510 5510 5511 5511 5512 5513 5512 5514 5513 5512 5511 5510 5510 5509 5509 5508 5507 5506 5507 5507 5507
5468 5470 5473 5475 5476 5478 5480 5482 5483 5485 5488 5488 5491 5492 5494 5494 5495 5496 5496 5497 5498 5498 5498 5499 5499 5500 5499 5502 5503 5504 5502 5501 5499 5499 5497 5496 5496 5493 5488 5488 5486 5484 5485 5486
5460 5462 5464 5466 5469 5471 5472 5473 5475 5477 5478 5479 5480 5481 5481 5482 5484 5484 5484 5486 5487 5487 5488 5490 5490 5489 5490 5492 5494 5494 5489 5488 5486 5485 5482 5481 5478 5474 5470 5469 5466 5464 5464 5463
5452 5455 5457 5458 5460 5462 5463 5465 5466 5466 5467 5467 5469 5470 5471 5472 5472 5474 5475 5477 5478 5479 5480 5480 5480 5480 5480 5481 5482 5478 5477 5475 5473 5469 5466 5462 5458 5456 5451 5450 5448 5445 5445 5444
5444 5446 5447 5450 5451 5452 5454 5454 5456 5457 5458 5458 5460 5461 5462 5463 5464 5466 5467 5468 5469 5469 5470 5471 5470 5471 5469 5469 5467 5465 5463 5460 5456 5452 5448 5445 5442 5439 5438 5437 5437 5436 5435 5434
5437 5438 5439 5440 5441 5443 5444 5445 5447 5447 5450 5450 5452 5453 5455 5456 5457 5458 5460 5459 5460 5461 5461 5461 5461 5460 5457 5455 5453 5450 5447 5443 5440 5436 5433 5431 5432 5432 5431 5430 5428 5428 5427 5425
5431 5432 5433 5433 5434 5436 5438 5439 5441 5442 5443 5445 5446 5447 5449 5450 5450 5450 5452 5451 5451 5451 5452 5450 5450 5449 5444 5441 5438 5435 5432 5429 5426 5425 5423 5424 5424 5423 5422 5420 5418 5416 5415 5414
5428 5429 5430 5430 5431 5433 5434 5435 5437 5438 5439 5440 5440 5441 5441 5442 5442 5442 5442 5441 5440 5440 5441 5438 5436 5436 5430 5427 5424 5421 5419 5417 5416 5417 5418 5418 5417 5416 5414 5412 5408 5405 5403 5402
5425 5427 5427 5428 5429 5430 5431 5432 5433 5433 5433 5434 5434 5434 5434 5434 5434 5433 5432 5430 5429 5428 5427 5425 5423 5421 5416 5414 5412 5410 5409 5409 5409 5410 5410 5409 5407 5405 5403 5401 5398 5395 5392 5390
5422 5424 5424 5425 5426 5426 5426 5426 5426 5426 5426 5426 5426 5426 5426 5424 5424 5423 5421 5419 5418 5416 5414 5412 5410 5406 5405 5404 5402 5401 5401 5403 5404 5404 5403 5401 5398 5396 5394 5391 5388 5385 5382 5379
5418 5419 5419 5420 5420 5420 5419 5419 5418 5418 5417 5417 5416 5416 5416 5413 5413 5411 5410 5408 5405 5403 5403 5400 5398 5396 5395 5394 5394 5395 5396 5397 5398 5397 5394 5392 5390 5388 5384 5381 5379 5375 5371 5367
5414 5414 5413 5413 5413 5412 5411 5410 5410 5409 5408 5407 5406 5405 5405 5402 5401 5400 5398 5395 5394 5393 5391 5390 5389 5388 5387 5387 5388 5390 5391 5392 5391 5390 5388 5385 5383 5380 5377 5372 5369 5364 5359 5354
5408 5407 5406 5405 5404 5403 5402 5401 5400 5399 5398 5397 5396 5394 5393 5391 5390 5389 5386 5385 5384 5383 5383 5382 5381 5380 5380 5381 5384 5385 5386 5387 5386 5384 5381 5379 5377 5374 5370 5365 5361 5355 5349 5341
5400 5399 5398 5397 5396 5394 5393 5392 5390 5389 5388 5386 5384 5383 5382 5380 5378 5378 5376 5376 5376 5375 5374 5374 5373 5373 5374 5377 5379 5381 5381 5380 5379 5378 5376 5374 5372 5368 5364 5359 5354 5348 5343 5336